{"data":{"norad_id":67961,"epoch":"2026-05-25T00:38:16.810080Z","epoch_age_seconds":73587,"freshness":"FRESH","line1":"1 67961U 26038A   26145.02658345  .00012476  00000+0  38805-3 0  9995","line2":"2 67961  97.2840 154.9887 0001716  99.3344 260.8092 15.33451065 14937","mean_motion":15.33451065,"eccentricity":0.0001716,"inclination_deg":97.284,"raan_deg":154.9887,"arg_perigee_deg":99.3344,"mean_anomaly_deg":260.8092,"bstar":0.00038805,"rev_number":1493,"period_min":93.905833245484,"perigee_km":464.3507569433,"apogee_km":466.6995017861,"semimajor_km":6843.6621293647,"source":"CELESTRAK","updated_at":"2026-05-25T13:38:21.772683Z"}}